Owensboro, KY

12:16 PM CST on February 24, 2018 (GMT -0600)
Owensboro-Daviess County

Weather History for KOWB - December, 2013

Change the Weather History Date:

Thursday, December 26, 2013

  Actual Average Record
Temperature  
Mean Temperature 33 °F -  
Max Temperature 41 °F 41 °F 71 °F (1942)
Min Temperature 25 °F 24 °F 5 °F (1983)
Degree Days  
Heating Degree Days 32    
Moisture  
Dew Point 26 °F    
Average Humidity 79    
Maximum Humidity 100    
Minimum Humidity 52    
Precipitation  
Precipitation 0.00 in - - ()
Sea Level Pressure  
Sea Level Pressure 30.39 in    
Wind  
Wind Speed 6 mph (SW)    
Max Wind Speed 12 mph    
Max Gust Speed -    
Visibility 9 miles    
Events      
Averages and records for this station are not official NWS values.
T = Trace of Precipitation, MM = Missing Value Source: NWS Daily Summary

Daily Weather History Graph

Daily Weather History Graph

Search for Another Location

Airport or City:

Trip Planner

Search our weather history database for the weather conditions in past years. The results will help you decide how hot, cold, wet, or windy it might be!

Date:

Astronomy

Dec. 26, 2013 Rise Set
Actual Time 7:02 AM CST 4:36 PM CST
Civil Twilight 6:33 AM CST 5:05 PM CST
Nautical Twilight 6:00 AM CST 5:38 PM CST
Astronomical Twilight 5:28 AM CST 6:10 PM CST
Moon 12:35 AM CST (12/26) 12:07 PM CST (12/26)
Length of Visible Light 10h 32m
Length of Day
9h 33m
Last Quarter, 38% of the Moon is Illuminated
Dec 26
Last Quarter
Jan 1
New
Jan 7
First Quarter
Jan 15
Full
Jan 23
Last Quarter

Hourly Weather History & Observations

Time (CST) Temp. Windchill Dew Point Humidity Pressure Visibility Wind Dir Wind Speed Gust Speed Precip Events Conditions
12:56 AM 32.0 °F 23.0 °F 28.0 °F 85% 30.31 in 10.0 mi West 11.5 mph - N/A   Overcast
1:56 AM 32.0 °F 23.6 °F 28.0 °F 85% 30.32 in 10.0 mi WNW 10.4 mph - N/A   Overcast
2:56 AM 32.0 °F 25.6 °F 29.1 °F 89% 30.34 in 10.0 mi West 6.9 mph - N/A   Overcast
3:56 AM 29.1 °F 24.1 °F 27.1 °F 92% 30.35 in 10.0 mi West 4.6 mph - N/A   Scattered Clouds
4:56 AM 26.1 °F 20.5 °F 26.1 °F 100% 30.37 in 8.0 mi WSW 4.6 mph - N/A   Clear
5:56 AM 26.1 °F 21.9 °F 26.1 °F 100% 30.39 in 7.0 mi SSW 3.5 mph - N/A   Clear
6:56 AM 25.2 °F - 25.2 °F 100% 30.40 in 6.0 mi Calm Calm - N/A   Haze
7:56 AM 28.0 °F - 28.0 °F 100% 30.42 in 6.0 mi Calm Calm - N/A   Clear
8:56 AM 32.0 °F 26.4 °F 30.0 °F 92% 30.43 in 7.0 mi WSW 5.8 mph - N/A   Clear
9:56 AM 34.9 °F 30.8 °F 29.1 °F 79% 30.45 in 9.0 mi WSW 4.6 mph - N/A   Clear
10:56 AM 36.9 °F 32.2 °F 28.0 °F 70% 30.43 in 10.0 mi SSW 5.8 mph - N/A   Clear
11:56 AM 38.8 °F 33.2 °F 26.1 °F 60% 30.41 in 10.0 mi SSW 8.1 mph - N/A   Clear
12:56 PM 39.9 °F 35.8 °F 27.1 °F 60% 30.40 in 10.0 mi SW 5.8 mph - N/A   Clear
1:56 PM 41.9 °F 39.0 °F 25.2 °F 52% 30.39 in 10.0 mi SW 4.6 mph - N/A   Clear
2:56 PM 41.9 °F 39.0 °F 25.2 °F 52% 30.39 in 10.0 mi SW 4.6 mph - N/A   Clear
3:56 PM 39.9 °F - 25.2 °F 56% 30.40 in 10.0 mi Calm Calm - N/A   Clear
4:56 PM 36.0 °F 32.1 °F 25.2 °F 65% 30.40 in 10.0 mi SSE 4.6 mph - N/A   Clear
5:56 PM 32.9 °F 27.5 °F 26.1 °F 76% 30.39 in 10.0 mi SSE 5.8 mph - N/A   Clear
6:56 PM 32.0 °F 28.7 °F 25.2 °F 76% 30.39 in 10.0 mi South 3.5 mph - N/A   Clear
7:56 PM 31.1 °F 25.4 °F 25.2 °F 79% 30.39 in 10.0 mi South 5.8 mph - N/A   Clear
8:56 PM 30.0 °F 25.2 °F 25.2 °F 82% 30.39 in 10.0 mi SSE 4.6 mph - N/A   Clear
9:56 PM 29.1 °F 24.1 °F 24.1 °F 81% 30.38 in 10.0 mi South 4.6 mph - N/A   Clear
10:56 PM 28.0 °F 22.8 °F 24.1 °F 85% 30.40 in 10.0 mi SW 4.6 mph - N/A   Clear
11:56 PM 28.0 °F - 24.1 °F 85% 30.41 in 10.0 mi Calm Calm - N/A   Clear